| time (UTC) | temp F | wind direction | speed MPH | gust MPH | rain 1hr in | rain 24hr in | rain mn in | humidity % | barometer mb |
| 20260906000111 | 74 | 0.0 | 0.0 | 0.00 | 0.01 | 0.01 | 87 | 1015.1 | |
| 20260905235026 | 74 | 0.0 | 0.0 | 0.00 | 0.01 | 0.01 | 87 | 1015.3 | |
| 20260905234042 | 75 | 68 | 2.0 | 3.0 | 0.00 | 0.01 | 0.01 | 87 | 1015.4 |
| 20260905233041 | 75 | 72 | 2.0 | 3.0 | 0.00 | 0.01 | 0.01 | 87 | 1015.6 |
| 20260905232035 | 76 | 71 | 2.0 | 3.0 | 0.00 | 0.01 | 0.01 | 86 | 1015.8 |
| 20260905231052 | 76 | 72 | 1.0 | 2.0 | 0.00 | 0.01 | 0.01 | 86 | 1015.9 |
| 20260905230048 | 77 | 0.0 | 0.0 | 0.00 | 0.01 | 0.01 | 85 | 1015.9 | |
| 20260905225025 | 77 | 73 | 0.0 | 1.0 | 0.00 | 0.01 | 0.01 | 85 | 1015.8 |
| 20260905224021 | 78 | 73 | 1.0 | 2.0 | 0.00 | 0.01 | 0.01 | 84 | 1015.7 |
| 20260905223020 | 79 | 96 | 1.0 | 1.0 | 0.00 | 0.01 | 0.01 | 83 | 1015.6 |
| 20260905222035 | 80 | 97 | 0.0 | 1.0 | 0.00 | 0.01 | 0.01 | 82 | 1015.6 |
| 20260905221031 | 82 | 70 | 2.0 | 7.0 | 0.00 | 0.01 | 0.01 | 82 | 1015.6 |
| 20260905220027 | 82 | 259 | 1.0 | 4.0 | 0.00 | 0.01 | 0.01 | 83 | 1015.8 |
| 20260905215025 | 81 | 299 | 0.0 | 2.0 | 0.00 | 0.01 | 0.01 | 84 | 1016.0 |
| 20260905214020 | 80 | 0.0 | 0.0 | 0.00 | 0.01 | 0.01 | 83 | 1015.9 | |
| 20260905213017 | 81 | 195 | 1.0 | 2.0 | 0.00 | 0.01 | 0.01 | 83 | 1015.9 |
| 20260905212054 | 82 | 264 | 0.0 | 1.0 | 0.00 | 0.01 | 0.01 | 82 | 1015.9 |
| 20260905211030 | 83 | 247 | 1.0 | 3.0 | 0.00 | 0.01 | 0.01 | 82 | 1015.9 |
| 20260905210027 | 83 | 264 | 1.0 | 6.0 | 0.00 | 0.01 | 0.01 | 83 | 1015.9 |
| 20260905205023 | 82 | 278 | 1.0 | 2.0 | 0.00 | 0.01 | 0.01 | 84 | 1015.8 |
| 20260905204019 | 80 | 82 | 1.0 | 3.0 | 0.00 | 0.01 | 0.01 | 84 | 1015.8 |
| 20260905203016 | 80 | 79 | 1.0 | 4.0 | 0.00 | 0.01 | 0.01 | 84 | 1016.0 |
| 20260905202032 | 80 | 343 | 1.0 | 3.0 | 0.00 | 0.01 | 0.01 | 84 | 1016.2 |
| 20260905201031 | 80 | 90 | 1.0 | 2.0 | 0.00 | 0.01 | 0.01 | 84 | 1016.2 |
| 20260905200026 | 80 | 208 | 0.0 | 2.0 | 0.00 | 0.01 | 0.01 | 84 | 1016.4 |
| 20260905195022 | 80 | 277 | 0.0 | 1.0 | 0.00 | 0.01 | 0.01 | 84 | 1016.3 |
| 20260905194020 | 80 | 93 | 1.0 | 2.0 | 0.00 | 0.01 | 0.01 | 84 | 1016.2 |
| 20260905193035 | 80 | 95 | 1.0 | 3.0 | 0.00 | 0.01 | 0.01 | 83 | 1016.5 |
| 20260905192052 | 80 | 119 | 1.0 | 6.0 | 0.00 | 0.01 | 0.01 | 83 | 1016.3 |
| 20260905191029 | 81 | 345 | 1.0 | 4.0 | 0.00 | 0.01 | 0.01 | 84 | 1016.4 |
| 20260905190025 | 81 | 85 | 2.0 | 6.0 | 0.00 | 0.01 | 0.01 | 83 | 1016.2 |
| 20260905185023 | 81 | 48 | 2.0 | 7.0 | 0.00 | 0.01 | 0.01 | 83 | 1016.4 |
| 20260905184018 | 81 | 74 | 4.0 | 9.0 | 0.00 | 0.01 | 0.01 | 82 | 1016.3 |
| 20260905183035 | 81 | 82 | 5.0 | 9.0 | 0.00 | 0.01 | 0.01 | 83 | 1016.5 |
| 20260905182032 | 80 | 79 | 3.0 | 7.0 | 0.00 | 0.01 | 0.01 | 85 | 1016.4 |
| 20260905181028 | 81 | 76 | 3.0 | 9.0 | 0.00 | 0.01 | 0.01 | 85 | 1016.6 |
| 20260905180025 | 81 | 70 | 2.0 | 6.0 | 0.00 | 0.01 | 0.01 | 87 | 1016.6 |
| 20260905175022 | 81 | 49 | 2.0 | 4.0 | 0.00 | 0.02 | 0.01 | 86 | 1016.6 |
| 20260905174018 | 80 | 78 | 1.0 | 2.0 | 0.00 | 0.02 | 0.01 | 87 | 1016.6 |
| 20260905173034 | 81 | 88 | 3.0 | 9.0 | 0.00 | 0.02 | 0.01 | 87 | 1016.6 |
| 20260905172031 | 81 | 94 | 3.0 | 8.0 | 0.00 | 0.02 | 0.01 | 87 | 1016.6 |
| 20260905171028 | 81 | 91 | 2.0 | 7.0 | 0.00 | 0.02 | 0.01 | 88 | 1016.7 |
| 20260905170024 | 79 | 95 | 4.0 | 9.0 | 0.00 | 0.04 | 0.01 | 88 | 1016.5 |
| 20260905165021 | 79 | 80 | 4.0 | 8.0 | 0.00 | 0.10 | 0.01 | 88 | 1016.6 |
| 20260905164017 | 80 | 73 | 4.0 | 9.0 | 0.00 | 0.18 | 0.01 | 88 | 1016.5 |
| 20260905163034 | 80 | 89 | 3.0 | 6.0 | 0.00 | 0.24 | 0.01 | 89 | 1016.6 |
| 20260905162030 | 81 | 68 | 2.0 | 4.0 | 0.00 | 0.24 | 0.01 | 90 | 1016.6 |
| 20260905161027 | 81 | 52 | 2.0 | 4.0 | 0.00 | 0.24 | 0.01 | 92 | 1016.5 |
| 20260905160023 | 79 | 46 | 1.0 | 2.0 | 0.00 | 0.24 | 0.01 | 92 | 1016.5 |
| 20260905155019 | 78 | 88 | 1.0 | 3.0 | 0.00 | 0.24 | 0.01 | 92 | 1016.5 |
| 20260905154016 | 78 | 84 | 1.0 | 3.0 | 0.00 | 0.24 | 0.01 | 92 | 1016.5 |
| 20260905153033 | 78 | 71 | 3.0 | 7.0 | 0.00 | 0.24 | 0.01 | 92 | 1016.4 |
| 20260905152029 | 78 | 80 | 1.0 | 4.0 | 0.00 | 0.24 | 0.01 | 93 | 1016.4 |
| 20260905151025 | 77 | 108 | 2.0 | 4.0 | 0.00 | 0.24 | 0.01 | 93 | 1016.2 |
| 20260905150022 | 77 | 96 | 3.0 | 7.0 | 0.00 | 0.24 | 0.01 | 93 | 1016.2 |
| 20260905145018 | 77 | 81 | 1.0 | 3.0 | 0.00 | 0.25 | 0.01 | 93 | 1016.1 |
| 20260905144035 | 76 | 106 | 1.0 | 3.0 | 0.00 | 0.25 | 0.01 | 93 | 1016.1 |
| 20260905143031 | 76 | 285 | 1.0 | 3.0 | 0.00 | 0.25 | 0.01 | 93 | 1016.1 |
| 20260905142028 | 74 | 107 | 0.0 | 1.0 | 0.00 | 0.25 | 0.01 | 93 | 1016.1 |
| 20260905141026 | 74 | 0.0 | 0.0 | 0.00 | 0.25 | 0.01 | 93 | 1016.0 | |
| 20260905140021 | 73 | 129 | 0.0 | 1.0 | 0.00 | 0.25 | 0.01 | 94 | 1015.9 |
| 20260905135038 | 73 | 0.0 | 0.0 | 0.00 | 0.25 | 0.01 | 94 | 1015.5 | |
| 20260905134034 | 72 | 110 | 2.0 | 4.0 | 0.00 | 0.25 | 0.01 | 94 | 1015.3 |
| 20260905133031 | 71 | 98 | 0.0 | 1.0 | 0.00 | 0.25 | 0.01 | 93 | 1015.2 |
| 20260905132027 | 71 | 0.0 | 0.0 | 0.00 | 0.25 | 0.01 | 93 | 1015.2 | |
| 20260905131024 | 71 | 0.0 | 0.0 | 0.00 | 0.25 | 0.01 | 93 | 1015.2 | |
| 20260905130020 | 70 | 0.0 | 0.0 | 0.00 | 0.25 | 0.01 | 93 | 1015.2 | |
| 20260905125017 | 70 | 0.0 | 0.0 | 0.00 | 0.25 | 0.01 | 93 | 1015.0 | |
| 20260905124054 | 70 | 0.0 | 0.0 | 0.00 | 0.25 | 0.01 | 93 | 1015.0 | |
| 20260905123031 | 69 | 0.0 | 0.0 | 0.00 | 0.25 | 0.01 | 93 | 1015.2 | |
| 20260905122026 | 69 | 0.0 | 0.0 | 0.00 | 0.25 | 0.01 | 93 | 1014.9 | |
| 20260905121024 | 69 | 0.0 | 0.0 | 0.00 | 0.25 | 0.01 | 93 | 1014.8 | |
| 20260905120040 | 69 | 0.0 | 0.0 | 0.00 | 0.25 | 0.01 | 93 | 1014.6 | |
| 20260905115016 | 68 | 0.0 | 0.0 | 0.00 | 0.25 | 0.00 | 93 | 1014.7 | |
| 20260905114033 | 68 | 0.0 | 0.0 | 0.00 | 0.25 | 0.00 | 93 | 1014.6 | |
| 20260905113050 | 68 | 0.0 | 0.0 | 0.00 | 0.25 | 0.00 | 93 | 1014.4 | |
| 20260905112026 | 68 | 0.0 | 0.0 | 0.00 | 0.25 | 0.00 | 93 | 1014.0 | |
| 20260905111023 | 68 | 0.0 | 0.0 | 0.00 | 0.25 | 0.00 | 93 | 1013.9 | |
| 20260905110039 | 68 | 0.0 | 0.0 | 0.00 | 0.26 | 0.00 | 93 | 1013.9 | |
| 20260905105035 | 68 | 0.0 | 0.0 | 0.00 | 0.30 | 0.00 | 93 | 1014.0 | |
| 20260905104052 | 68 | 0.0 | 0.0 | 0.00 | 0.30 | 0.00 | 93 | 1013.4 | |
| 20260905103029 | 67 | 0.0 | 0.0 | 0.00 | 0.30 | 0.00 | 93 | 1013.6 | |
| 20260905102045 | 67 | 0.0 | 0.0 | 0.00 | 0.30 | 0.00 | 93 | 1013.5 | |
| 20260905101042 | 67 | 0.0 | 0.0 | 0.00 | 0.30 | 0.00 | 93 | 1013.5 | |
| 20260905100019 | 67 | 0.0 | 0.0 | 0.00 | 0.30 | 0.00 | 93 | 1013.6 | |
| 20260905095035 | 67 | 0.0 | 0.0 | 0.00 | 0.30 | 0.00 | 93 | 1013.6 | |
| 20260905094112 | 67 | 0.0 | 0.0 | 0.00 | 0.30 | 0.00 | 93 | 1013.8 | |
| 20260905093029 | 67 | 0.0 | 0.0 | 0.00 | 0.30 | 0.00 | 93 | 1013.7 | |
| 20260905092024 | 66 | 0.0 | 0.0 | 0.00 | 0.30 | 0.00 | 93 | 1013.8 | |
| 20260905091020 | 66 | 0.0 | 0.0 | 0.00 | 0.30 | 0.00 | 93 | 1013.8 | |
| 20260905090038 | 66 | 0.0 | 0.0 | 0.00 | 0.30 | 0.00 | 93 | 1013.9 | |
| 20260905085033 | 66 | 0.0 | 0.0 | 0.00 | 0.30 | 0.00 | 93 | 1013.8 | |
| 20260905084030 | 66 | 0.0 | 0.0 | 0.00 | 0.30 | 0.00 | 93 | 1013.8 | |
| 20260905083028 | 66 | 0.0 | 0.0 | 0.00 | 0.30 | 0.00 | 93 | 1013.8 | |
| 20260905082023 | 66 | 0.0 | 0.0 | 0.00 | 0.30 | 0.00 | 93 | 1013.7 | |
| 20260905081020 | 66 | 0.0 | 0.0 | 0.00 | 0.30 | 0.00 | 93 | 1013.6 | |
| 20260905080034 | 66 | 0.0 | 0.0 | 0.00 | 0.30 | 0.00 | 93 | 1013.8 | |
| 20260905075031 | 66 | 0.0 | 0.0 | 0.00 | 0.30 | 0.00 | 93 | 1013.8 | |
| 20260905074026 | 66 | 0.0 | 0.0 | 0.00 | 0.30 | 0.00 | 93 | 1013.7 | |
| 20260905073023 | 66 | 0.0 | 0.0 | 0.00 | 0.30 | 0.00 | 93 | 1013.7 | |
| 20260905072020 | 66 | 0.0 | 0.0 | 0.00 | 0.30 | 0.00 | 93 | 1013.7 | |
| 20260905071016 | 66 | 0.0 | 0.0 | 0.00 | 0.30 | 0.00 | 93 | 1013.7 | |
| 20260905070034 | 66 | 0.0 | 0.0 | 0.00 | 0.30 | 0.00 | 93 | 1013.8 | |
| 20260905065030 | 66 | 0.0 | 0.0 | 0.00 | 0.30 | 0.00 | 93 | 1013.9 | |
| 20260905064027 | 66 | 0.0 | 0.0 | 0.00 | 0.30 | 0.00 | 93 | 1013.8 | |
| 20260905063023 | 65 | 0.0 | 0.0 | 0.00 | 0.30 | 0.00 | 93 | 1013.8 | |
| 20260905062018 | 65 | 0.0 | 0.0 | 0.00 | 0.30 | 0.00 | 93 | 1013.8 | |
| 20260905061034 | 66 | 0.0 | 0.0 | 0.00 | 0.30 | 0.00 | 93 | 1013.7 | |
| 20260905060051 | 66 | 0.0 | 0.0 | 0.00 | 0.30 | 0.00 | 93 | 1013.5 | |
| 20260905055027 | 66 | 0.0 | 0.0 | 0.00 | 0.30 | 0.00 | 93 | 1013.7 | |
| 20260905054023 | 66 | 0.0 | 0.0 | 0.00 | 0.30 | 0.00 | 93 | 1013.7 | |
| 20260905053020 | 66 | 0.0 | 0.0 | 0.00 | 0.30 | 0.00 | 93 | 1013.7 | |
| 20260905052017 | 66 | 145 | 0.0 | 1.0 | 0.00 | 0.30 | 0.00 | 93 | 1013.6 |
| 20260905051053 | 66 | 146 | 0.0 | 1.0 | 0.00 | 0.30 | 0.00 | 93 | 1013.6 |
| 20260905050052 | 66 | 0.0 | 0.0 | 0.00 | 0.30 | 0.30 | 93 | 1013.6 | |
| 20260905045046 | 66 | 0.0 | 0.0 | 0.00 | 0.30 | 0.30 | 93 | 1013.5 | |
| 20260905044023 | 66 | 0.0 | 0.0 | 0.00 | 0.30 | 0.30 | 93 | 1013.4 | |
| 20260905043040 | 66 | 0.0 | 0.0 | 0.00 | 0.30 | 0.30 | 93 | 1013.4 | |
| 20260905042016 | 66 | 216 | 0.0 | 1.0 | 0.00 | 0.30 | 0.30 | 92 | 1013.3 |
| 20260905041033 | 66 | 0.0 | 0.0 | 0.00 | 0.30 | 0.30 | 92 | 1013.2 | |
| 20260905040029 | 65 | 0.0 | 0.0 | 0.00 | 0.30 | 0.30 | 92 | 1013.3 | |
| 20260905035026 | 65 | 0.0 | 0.0 | 0.00 | 0.30 | 0.30 | 92 | 1013.2 | |
| 20260905034102 | 65 | 0.0 | 0.0 | 0.00 | 0.30 | 0.30 | 92 | 1013.2 | |
| 20260905033019 | 65 | 0.0 | 0.0 | 0.00 | 0.30 | 0.30 | 92 | 1013.1 | |
| 20260905032036 | 65 | 0.0 | 0.0 | 0.00 | 0.30 | 0.30 | 92 | 1013.3 | |
| 20260905031112 | 65 | 0.0 | 0.0 | 0.00 | 0.30 | 0.30 | 92 | 1013.4 | |
| 20260905030028 | 66 | 0.0 | 0.0 | 0.00 | 0.30 | 0.30 | 92 | 1013.1 | |
| 20260905025046 | 66 | 0.0 | 0.0 | 0.00 | 0.30 | 0.30 | 92 | 1013.1 | |
| 20260905024022 | 66 | 0.0 | 0.0 | 0.00 | 0.30 | 0.30 | 92 | 1013.0 | |
| 20260905023018 | 67 | 0.0 | 0.0 | 0.00 | 0.30 | 0.30 | 92 | 1013.1 | |
| 20260905022035 | 67 | 98 | 0.0 | 1.0 | 0.00 | 0.30 | 0.30 | 92 | 1013.3 |
| 20260905021032 | 67 | 0.0 | 0.0 | 0.00 | 0.30 | 0.30 | 92 | 1013.1 | |
| 20260905020029 | 67 | 0.0 | 0.0 | 0.00 | 0.30 | 0.30 | 92 | 1013.0 | |
| 20260905015024 | 68 | 0.0 | 0.0 | 0.00 | 0.30 | 0.30 | 92 | 1013.1 | |
| 20260905014021 | 68 | 0.0 | 0.0 | 0.00 | 0.30 | 0.30 | 92 | 1013.1 | |
| 20260905013037 | 69 | 0.0 | 0.0 | 0.00 | 0.30 | 0.30 | 92 | 1013.3 | |
| 20260905012034 | 69 | 0.0 | 0.0 | 0.00 | 0.30 | 0.30 | 92 | 1013.1 | |
| 20260905011031 | 69 | 0.0 | 0.0 | 0.00 | 0.30 | 0.30 | 92 | 1013.0 | |
| 20260905010027 | 70 | 0.0 | 0.0 | 0.00 | 0.30 | 0.30 | 92 | 1012.8 | |
| 20260905005024 | 71 | 0.0 | 0.0 | 0.00 | 0.30 | 0.30 | 92 | 1012.9 | |
| 20260905004020 | 72 | 0.0 | 0.0 | 0.00 | 0.30 | 0.30 | 92 | 1012.7 | |
| 20260905003018 | 72 | 54 | 0.0 | 1.0 | 0.00 | 0.30 | 0.30 | 92 | 1012.4 |
| 20260905002034 | 73 | 110 | 0.0 | 2.0 | 0.00 | 0.30 | 0.30 | 91 | 1012.1 |
| 20260905001030 | 74 | 89 | 2.0 | 3.0 | 0.00 | 0.30 | 0.30 | 91 | 1011.9 |